Location: G�ppingen
(48.7000°N, 9.6670°E)
Time: 15:41:40
(UTC+02:00)

OTV 5 (USA 277) - Visible Passes

Search period start: 19 August 2018 00:00
Search period end: 29 August 2018 00:00
Orbit: 316 x 318 km, 54.5° (Epoch: 18 August)

Date Brightness Start Highest point End Pass type
(mag) Time Alt. Az. Time Alt. Az. Time Alt. Az.
19 Aug ? 21:16:18 10° SSW 21:18:38 25° SE 21:20:57 10° E visible
19 Aug ? 22:50:12 10° W 22:52:42 45° NNW 22:52:42 45° NNW visible
20 Aug ? 21:30:24 10° SW 21:33:04 59° SSE 21:35:46 10° ENE visible
20 Aug ? 23:05:06 10° W 23:07:22 29° NNW 23:07:22 29° NNW visible
21 Aug ? 21:44:57 10° WSW 21:47:39 63° NNW 21:50:22 10° ENE visible
21 Aug ? 23:20:02 10° WNW 23:21:40 21° NNW 23:21:40 21° NNW visible
22 Aug ? 21:59:46 10° W 22:02:20 35° NNW 22:04:53 10° NE visible
22 Aug ? 23:34:53 10° NW 23:35:46 16° NW 23:35:46 16° NW visible
23 Aug ? 22:14:43 10° WNW 22:17:05 26° N 22:18:53 14° NE visible
23 Aug ? 23:49:35 10° NW 23:49:45 11° NW 23:49:45 11° NW visible
24 Aug ? 20:54:29 10° W 20:57:08 45° NNW 20:59:47 10° NE visible
24 Aug ? 22:29:37 10° WNW 22:31:53 23° N 22:32:47 19° NNE visible
25 Aug ? 21:09:23 10° W 21:11:51 29° NNW 21:14:19 10° NE visible
25 Aug ? 22:44:24 10° NW 22:46:39 23° N 22:46:39 23° N visible
26 Aug ? 21:24:20 10° WNW 21:26:38 24° N 21:28:56 10° NE visible
26 Aug ? 22:59:02 10° NW 23:00:29 22° NNW 23:00:29 22° NNW visible
27 Aug ? 21:39:11 10° NW 21:41:26 23° N 21:43:27 12° NE visible
27 Aug ? 23:13:34 10° NW 23:14:18 16° NW 23:14:18 16° NW visible
28 Aug ? 21:53:53 10° NW 21:56:15 25° N 21:57:16 20° NE visible
28 Aug ? 23:28:07 10° WNW 23:28:08 10° WNW 23:28:08 10° WNW visible
